Location: George Washington National Forest Helicopter Landing Site
(38.6463°N, 79.0851°W)
Time: 08:27:36
(UTC-04:00)

Tiros 1 despin weight - Pass Details

Date: 25 August 2019
Orbit: 593 x 643 km, 48.2° (Epoch: 22 October)

Event Time Altitude Azimuth Distance (km) Brightness Sun altitude
Rises 22:48:58 0° 227° (SW) 2,811 - -29.7°
Reaches altitude 10° 22:51:15 10° 224° (SW) 1,914 - -30.1°
Maximum altitude 22:55:35 63° 144° (SE) 662 - -30.6°
Drops below altitude 10° 22:59:59 10° 62° (ENE) 1,939 - -31.2°
Sets 23:02:18 0° 60° (ENE) 2,852 - -31.5°
